Regional Weather Roundup
Issued by NWS

Home | Current Version | Previous Version | Graphics & Text | Print | Product List | Glossary On
Versions: 1 2 3 4 5 6 7 8 9 10 11 12 13 14 15 16 17 18 19 20 21 22 23 24 25 26 27
000
ASUS45 KSLC 241810
RWRUT

UTAH REGIONAL WEATHER ROUNDUP
NATIONAL WEATHER SERVICE SALT LAKE CITY UT
1200 PM MDT SAT SEP 24 2016

UTZ001>011-023>025-241900-

NORTHERN UTAH

CITY           SKY/WX    TMP DP  RH WIND       PRES   REMARKS
BRIGHAM CITY     N/A     53  42  66 CALM      30.26R
HILL AFB       PTSUNNY   52  42  70 VRB6      30.26R
LOGAN          CLOUDY    52  44  74 CALM      30.25R
OGDEN          CLOUDY    54  42  64 NE3       30.25R
PROVO AIRPORT  LGT RAIN  49  46  90 S5        30.28R
SALT LAKE CITY PTSUNNY   56  44  64 N13       30.25R
VERNAL         CLOUDY    48  41  76 E5        30.17R
WENDOVER       SUNNY     61  36  39 NW14      30.26S
HEBER CITY     CLOUDY    46  41  81 W9        30.23S
WEST JORDAN    CLOUDY    51  47  86 NW5       30.27R

$$

UTZ012>022-026-027-241900-

SOUTHERN/CENTRAL UTAH

CITY           SKY/WX    TMP DP  RH WIND       PRES   REMARKS
BLANDING       CLOUDY    53  37  53 SE5       30.31R
BRYCE CANYON   MOSUNNY   53  33  46 N21       30.30S
CEDAR CITY     SUNNY     61  31  32 NE9G18    30.25R
DELTA          MOSUNNY   55  39  54 N5        30.27S
MILFORD        SUNNY     60  37  42 NE10      30.26R
MOAB/CYNLANDS  MOSUNNY   62  35  36 W10       30.16R
PRICE          CLOUDY    52  36  54 VRB7      30.21R
ST GEORGE      MOCLDY    64  36  34 SW5       30.20R

$$

REGIONAL REPORTS     COLORADO/ARIZONA

CITY           SKY/WX    TMP DP  RH WIND       PRES   REMARKS
CRAIG, CO      LGT RAIN  46  39  76 SW15G22   30.18R
GRAND JUNCTION CLOUDY    54  41  61 CALM      30.19R
RIFLE          CLOUDY    46  43  89 NE6       30.21R
MONTROSE       CLOUDY    52  39  61 CALM      30.22F
CORTEZ         CLOUDY    54  39  57 CALM      30.24R
PAGE, AZ       SUNNY     65  34  31 NW7       30.19S
GRAND CANYON   SUNNY     59  29  31 CALM      30.27R
KINGMAN        SUNNY     73  32  22 N10       30.17S
FLAGSTAFF      SUNNY     59  25  27 VRB3      30.25F

$$

REGIONAL REPORTS    NEVADA/IDAHO/WYOMING

CITY           SKY/WX    TMP DP  RH WIND       PRES   REMARKS
LAS VEGAS, NV  SUNNY     78  26  14 E10       30.12F
ELY            SUNNY     56  36  47 NE7       30.33R
ELKO           SUNNY     59  32  36 CALM      30.34R
POCATELLO, ID  PTSUNNY   53  43  68 SW14      30.25R
BURLEY         MOSUNNY   55  43  63 W10G29    30.25R
EVANSTON, WY   CLOUDY    42  35  76 NW15      30.25R
ROCK SPRINGS   LGT RAIN  40  38  93 W18       30.16R WCI  31

$$




USA.gov is the U.S. government's official web portal to all federal, state and local government web resources and services.